Simultaneous Nadir Overpasses (SNOs) Predictions

Prediction of SNOs between AQUA and NOAA-19 Satellite Orbit:

Table of predicted SNOs for the next 14.0 days since TLE Epoch: 10/31/2020
Index Date (AQUA) Time (AQUA) Lat,Lon (AQUA) SZA (AQUA ) Date (NOAA-19) Time (NOAA-19) Lat,Lon (NOAA-19) SZA (NOAA-19 ) Distance(km) Time Diff (sec)
1 11/01/2020 13:53:46 -79.17, 126.86 85.53 11/01/2020 13:52:42 -79.10, 122.75 85.29 86.55 64
2 11/01/2020 14:43:19 79.41, -67.07 94.81 11/01/2020 14:43:27 79.43, -66.98 94.83 2.87 8
3 11/03/2020 20:17:03 -79.42, 29.45 84.49 11/03/2020 20:16:47 -79.40, 29.49 84.50 2.01 16
4 11/03/2020 21:06:30 79.43,-162.97 95.54 11/03/2020 21:07:42 79.42,-163.08 95.52 2.34 72
5 11/06/2020 01:50:47 79.41, 126.06 96.18 11/06/2020 01:49:57 79.39, 126.19 96.17 3.38 50
6 11/06/2020 02:40:13 -79.40, -66.22 83.83 11/06/2020 02:41:01 -79.43, -66.22 83.81 3.23 48
7 11/08/2020 07:24:30 -79.39,-137.21 83.20 11/08/2020 07:23:17 -79.38,-137.15 83.19 1.37 73
8 11/08/2020 08:13:57 79.40, 30.37 96.83 11/08/2020 08:14:11 79.41, 30.36 96.83 1.13 14
9 11/10/2020 13:47:40 -79.38, 127.07 82.57 11/10/2020 13:47:31 -79.41, 127.09 82.55 2.98 9
10 11/10/2020 14:37:12 79.58, -66.65 97.72 11/10/2020 14:38:19 79.59, -63.76 97.53 58.12 67
11 11/12/2020 19:21:24 79.38,-136.38 98.04 11/12/2020 19:20:40 79.39,-136.23 98.06 3.27 44
